Location: Keppel Henge
(44.7900°N, 80.9447°W)
Time: 23:29:28
(UTC-05:00)

OTV 5 (USA 277) - Pass Details

Date: 16 October 2017
Orbit: 404 x 417 km, 43.0° (Epoch: 07 September)

Event Time Altitude Azimuth Distance (km) Brightness Sun altitude
Rises 19:27:07 0° 262° (W) 2,352 ? -9.7°
Reaches altitude 10° 19:29:14 10° 259° (W) 1,490 ? -10.0°
Maximum altitude 19:32:35 65° 178° (S) 463 ? -10.6°
Enters shadow 19:35:01 17° 98° (E) 1,130 ? -11.1°
